Regional Weather Roundup
Issued by NWS San Angelo, TX

Home | Current Version | Previous Version | Text Only | Print | Product List | Glossary On
Versions: 1 2 3 4 5 6 7 8 9 10 11 12 13 14 15 16 17 18 19 20 21 22 23 24 25 26 27 28 29 30 31 32 33 34 35 36 37 38 39 40 41 42 43 44 45 46 47 48 49 50
000
ASUS44 KSJT 252102
RWRSJT
WEST CENTRAL TEXAS REGIONAL WEATHER ROUNDUP
NATIONAL WEATHER SERVICE SAN ANGELO TX
400 PM CDT TUE APR 25 2017

NOTE: "FAIR" INDICATES FEW OR NO CLOUDS BELOW 12,000 FEET WITH NO
SIGNIFICANT WEATHER AND/OR OBSTRUCTIONS TO VISIBILITY.

TXZ049-054-064>066-071>073-076>078-098-099-113-114-127-128-139-140-
154-155-168>170-252200
...LOCATIONS ACROSS WEST CENTRAL TEXAS...

CITY           SKY/WX    TMP DP  RH WIND       PRES   REMARKS
SAN ANGELO     CLOUDY    92  33  12 SW15      29.48F
ABILENE        CLOUDY    93  36  13 SW20G29   29.43F
DYESS AFB      NOT AVBL
JUNCTION       CLOUDY    94  50  22 S20       29.50F
SWEETWATER     PTSUNNY   92  32  12 SW21G30   29.48F
BROWNWOOD      NOT AVBL
COLEMAN        PTCLDY    91  42  18 SW13G20   29.47F
SONORA         CLOUDY    90  43  19 SW9G17    29.57F
OZONA            N/A     91  34  13 SW14G21   29.55F
BRADY          NOT AVBL
$$

TEXAS PANHANDLE/OKLAHOMA PANHANDLE

CITY           SKY/WX    TMP DP  RH WIND       PRES   REMARKS
AMARILLO       CLOUDY    73  39  29 W14       29.49F
BORGER         CLOUDY    69  47  45 N6        29.48F
CANADIAN       CLOUDY    67  53  61 N10       29.46F
DALHART        CLOUDY    59  45  59 N12       29.54S
DUMAS          CLOUDY    63  46  54 NE8       29.52S
GUYMON         NOT AVBL
HEREFORD       MOCLDY    72  37  27 W31G37    29.52R
PAMPA          MOCLDY    70  49  48 N10       29.48F
PERRYTON       CLOUDY    62  49  63 N20       29.49F
$$

SOUTHERN PANHANDLE/SOUTH PLAINS/ROLLING PLAINS

CITY           SKY/WX    TMP DP  RH WIND       PRES   REMARKS
LUBBOCK        PTSUNNY   84  25  11 NW10G18   29.46F
SNYDER         MOSUNNY  N/A N/A N/A SW24G32   29.47F
CHILDRESS      CLOUDY    84  36  18 NW14      29.42F
SEMINOLE       CLOUDY    86  30  13 W25G36    29.53F
$$

PERMIAN BASIN

CITY           SKY/WX    TMP DP  RH WIND       PRES   REMARKS
MIDLAND        SUNNY     92  23   8 W22G35    29.50F
ODESSA         MOSUNNY   92  25   9 SW20G35   29.51F
WINK           MOSUNNY   93  23   8 W32G44    29.48F
$$

FAR WEST/SOUTHWEST MOUNTAINS/TRANS PECOS

CITY           SKY/WX    TMP DP  RH WIND       PRES   REMARKS
ALPINE         CLEAR     89  12   6 SW23      29.70F
DRYDEN           N/A     94  18   6 SW20G26   29.51F
EL PASO        MOSUNNY   84  23  10 W25G44    29.61F
FORT STOCKTON  SUNNY     95  20   6 W16G31    29.53F
GUADALUPE PASS CLOUDY    79  26  14 W47G69    29.63S
MARFA          SUNNY     88  15   6 SW26G40   29.69F
PECOS          CLEAR     94  23   8 SW21G35   29.49F
$$

DALLAS/FORT WORTH METROPLEX

CITY           SKY/WX    TMP DP  RH WIND       PRES   REMARKS
DFW AIRPORT    PTSUNNY   84  67  56 S21G33    29.44F
FTW MEACHAM    CLOUDY    86  68  54 S20G28    29.44F
DAL-EXECUTIVE  SUNNY     83  67  58 S15G28    29.47F
GRAND PRAIRIE  SUNNY     84  66  54 S14G28    29.48F
ADDISON        MOSUNNY   82  64  54 S21G30    29.48F
MESQUITE       MOCLDY    81  66  61 SE20G26   29.49F
LANCASTER      PTCLDY    83  67  59 S18G30    29.50F
$$

NORTH CENTRAL TEXAS

CITY           SKY/WX    TMP DP  RH WIND       PRES   REMARKS
SHRMAN/DENISON PTCLDY    82  66  57 S23       29.47S
GAINESVILLE    MOSUNNY   81  66  61 S12       29.45F
BRIDGEPORT     PTCLDY    85  59  40 S14       29.43F
DENTON         MOSUNNY   84  69  60 S17       29.44F
WAXAHACHIE     CLEAR     82  67  62 S17G30    29.50F
GRANBURY       CLEAR     90  64  41 SE15G23   29.45F
$$

WESTERN NORTH TEXAS

CITY           SKY/WX    TMP DP  RH WIND       PRES   REMARKS
WICHITA FALLS  CLOUDY    93  41  16 W12G17    29.37F
VERNON         CLEAR     94  22   7 W10       29.38F
BRECKENRIDGE   MOCLDY    96  44  16 SW15      29.41F HAZE
COMANCHE       SUNNY     90  58  34 SW14G20   29.47F
$$

CENTRAL AND SOUTH CENTRAL TEXAS

CITY           SKY/WX    TMP DP  RH WIND       PRES   REMARKS
AUSTIN/BERGSTM CLOUDY    90  70  51 S14G23    29.51F
WACO           MOSUNNY   83  68  60 S20       29.50F
HILLSBORO      PTCLDY    82  68  62 S23G30    29.50F
TEMPLE         PTSUNNY   82  69  64 S24G30    29.51F
KILLEEN-GRAY   SUNNY     85  67  54 SE20G25   29.50F
FORT HOOD      SUNNY     84  67  54 S18       29.48F
GEORGETOWN     PTSUNNY   84  66  54 S14G23    29.52F
LAGO VISTA     FAIR      87  66  50 S12G22    29.54F
SAN MARCOS     MOSUNNY   90  70  51 S16       29.53F
NEW BRAUNFELS  MOSUNNY   88  69  53 S18       29.51F
RANDOLPH AFB   SUNNY     91  69  49 S12       29.52F
SAN ANTONIO    MOSUNNY   88  66  48 S9        29.53F
STINSON        SUNNY     93  68  43 SE16      29.49F
PLEASANTON     NOT AVBL
LA GRANGE      PTSUNNY   85  71  63 S16G22    29.54F
GIDDINGS       MOCLDY    83  68  60 S14G23    29.56F
$$

EAST TEXAS

CITY           SKY/WX    TMP DP  RH WIND       PRES   REMARKS
PARIS          CLOUDY    81  66  61 S18G26    29.51F
CLARKSVILLE    NOT AVBL
TYLER          MOSUNNY   82  66  58 S20G29    29.54F
LONGVIEW       PTSUNNY   81  66  60 S20       29.55F
PALESTINE      MOCLDY    81  68  64 S13G24    29.57F
NACOGDOCHES    PTSUNNY   82  66  57 SE22      29.57F
$$

TEXAS HILL COUNTRY AND EDWARDS PLATEAU

CITY           SKY/WX    TMP DP  RH WIND       PRES   REMARKS
LLANO          NOT AVBL
HORSESHOE BAY  FAIR      86  65  50 S12G21    29.52F
KERRVILLE      SUNNY     83  67  58 S10       29.56F
FREDERICKSBRG  NOT AVBL
ROCKSPRINGS    NOT AVBL
HONDO          SUNNY     89  68  49 S6        29.53F
UVALDE         CLEAR     86  63  46 CALM      29.54F
DEL RIO        CLOUDY    89  63  41 E12       29.47F
$$

SOUTHEAST TEXAS

CITY           SKY/WX    TMP DP  RH WIND       PRES   REMARKS
COLLEGE STN    CLOUDY    84  68  58 S23G30    29.55F
CALDWELL       NOT AVBL
CROCKETT       PTCLDY    84  68  58 S14G21    29.60F
BRENHAM        CLOUDY    83  69  62 S17G23    29.57F
HUNTSVILLE     PTSUNNY   84  65  52 S14G21    29.58F
CONROE         PTSUNNY   84  67  56 SE15      29.59F
HOUSTON BUSH   PTSUNNY   84  68  58 S14       29.61F
HOUSTON HOBBY  PTSUNNY   81  70  69 S16G24    29.61F
PERLAND        CLOUDY    82  68  62 S16G23    29.64F
WHARTON        MOCLDY    82  67  62 S18G24    29.61F
$$

THE UPPER TEXAS COAST

CITY           SKY/WX    TMP DP  RH WIND       PRES   REMARKS
ORANGE         CLOUDY    76  68  75 S10G16    29.70F
PORT ARTHUR    CLOUDY    78  67  68 S14       29.67F
GALVESTON      CLOUDY    79  72  79 S14       29.66F
ANGLETON       CLOUDY    82  70  66 S23G29    29.64F
BAY CITY       CLOUDY    80  71  73 S15       29.63F
$$

TEXAS COASTAL BEND, RIO GRANDE PLAINS DEEP SOUTH TEXAS

CITY           SKY/WX    TMP DP  RH WIND       PRES   REMARKS
VICTORIA       PTSUNNY   82  71  69 S25G31    29.58F
BEEVILLE       FAIR      89  76  65 E18G24    29.53F
ROCKPORT       CLOUDY    83  71  67 S16G26    29.56F
PORT ARANSAS   CLEAR     81  72  74 S24G32    29.56F
PORT LAVACA    CLOUDY    80  73  80 S21G26    29.60F
CORPUS CHRISTI MOSUNNY   87  73  62 S28G35    29.53F
KINGSVILLE NAS SUNNY     93  76  57 SE18G25   29.50F
COTULLA        MOSUNNY   96  58  27 S7        29.49F
LAREDO         SUNNY     97  61  30 CALM      29.50F
BROWNSVILLE    MOSUNNY   89  72  56 S24G35    29.57F
PORT ISABEL    CLOUDY    88  72  58 S24G35    29.55F HAZE
HEBBRONVILLE   CLEAR     94  60  32 CALM      29.53F
MCALLEN        SUNNY     97  73  45 SE21G28   29.52F
WESLACO        SUNNY     91  72  53 S20G25    29.53F
FALFURRIAS     CLEAR     97  61  30 S7        29.49F
EDINBURG       CLEAR     96  68  39 SE13G22   29.52F
$$




USA.gov is the U.S. government's official web portal to all federal, state and local government web resources and services.